Simultaneous Nadir Overpasses (SNOs) Predictions

Prediction of SNOs between GOES-17 and TERRA Satellite Orbit:

Table of predicted SNOs for the next 14.0 days since TLE Epoch: 9/4/2021
Index Date Time (GOES-17) GOES-17 Lat,Lon TERRA Lat,Lon Distance(km) Time Diff (sec)
1 09/04/2021 07:42:35 0.04,-137.20 -0.40,-139.30 238.55 80
2 09/06/2021 07:33:02 0.04,-137.19 0.22,-136.34 96.37 80
3 09/06/2021 19:51:36 -0.04,-137.19 0.88,-141.50 489.70 80
4 09/08/2021 07:20:49 0.04,-137.17 0.85,-133.38 430.87 80
5 09/08/2021 19:39:24 -0.04,-137.18 0.25,-138.54 155.32 80
6 09/10/2021 19:29:51 -0.04,-137.15 -0.37,-135.59 178.38 80
7 09/11/2021 07:48:34 0.04,-137.14 -0.72,-140.78 413.61 80
8 09/13/2021 07:36:21 0.03,-137.11 -0.09,-137.83 81.11 80
9 09/15/2021 07:26:48 0.03,-137.07 0.48,-134.86 250.70 80
10 09/15/2021 19:45:22 -0.03,-137.06 0.62,-140.02 336.25 80
11 09/17/2021 19:33:09 -0.02,-137.02 -0.02,-137.06 4.95 80
